GFSFLT2_con_lsi_042.txt.gz
Lid_Strength_Index
-0 -0 -0 -0 -1 0 0 -0 0 3 7 8 5 6 6 7 8 7 8 7 7 8 7 7 6 7 8 7
-0 -0 -0 -0 -0 0 -0 -1 0 4 8 6 5 7 6 6 6 6 6 5 4 5 6 6 7 8 8 9
-0 -0 0 -0 0 -0 -1 -1 2 5 9 3 7 6 6 6 4 4 3 4 4 5 6 8 9 8 10 10
0 0 0 0 1 -0 1 1 3 6 6 7 6 5 4 4 5 5 5 5 5 7 7 8 11 11 10 10
1 1 1 2 4 5 4 6 6 7 6 4 4 4 4 5 5 5 7 6 8 9 9 8 9 9 10 10
1 1 1 3 5 3 6 5 5 5 4 4 6 4 4 6 7 8 7 8 9 8 8 8 9 9 10 10
1 2 1 2 1 2 6 6 5 5 5 4 6 6 5 6 7 8 8 9 8 8 8 9 9 9 10 11
2 1 2 1 0 2 8 8 6 5 5 4 6 5 5 6 7 8 8 8 8 8 9 9 9 11 10 10
2 3 2 0 1 2 13 8 7 3 5 6 6 6 6 5 8 8 8 9 9 9 9 10 9 10 10 11
1 2 1 1 2 9 13 8 6 7 7 7 7 6 7 6 7 8 8 9 8 9 9 9 9 10 11 11
3 1 1 2 9 11 8 9 9 7 8 9 9 8 9 10 10 11 11 10 10 10 9 10 10 10 12 13
2 2 2 6 11 10 9 8 8 8 9 10 9 9 10 11 12 12 11 12 13 11 11 11 11 12 12 14
3 2 4 10 10 9 9 9 9 10 10 11 11 10 11 11 12 12 13 13 14 12 12 11 11 12 13 12
3 2 6 9 9 10 10 9 10 10 11 11 12 12 12 11 13 13 12 13 15 13 12 11 11 12 11 14
5 5 9 10 11 11 10 10 10 11 11 11 12 12 13 12 11 13 12 13 14 14 13 13 13 13 13 13
7 8 9 11 11 11 10 11 11 11 11 12 13 13 13 12 11 12 14 13 14 14 14 13 13 13 13 12
9 9 11 12 12 12 12 12 12 12 12 13 14 13 12 11 12 13 13 13 14 14 15 14 13 14 13 13

GFSFLT2_con_lsi_048.txt.gz
Lid_Strength_Index
-1 -1 -1 -1 -1 -1 0 0 2 3 5 8 5 6 6 7 6 5 6 6 7 8 7 8 6 8 9 8
-1 -1 -1 -1 -1 -0 0 -0 1 4 7 5 4 6 6 6 5 4 5 4 5 6 7 7 8 8 9 10
-1 -1 -1 -0 -0 0 -0 -0 3 4 9 4 6 6 6 7 6 5 4 6 5 6 6 8 9 9 12 10
-1 -0 0 0 0 1 1 2 2 7 7 8 6 6 5 6 7 6 6 5 6 8 7 9 13 11 11 10
0 0 1 3 4 4 3 6 7 7 7 6 5 6 5 6 6 6 7 5 8 10 8 7 8 9 10 10
0 1 3 4 4 2 7 5 5 5 5 4 7 5 4 7 7 8 6 7 10 7 6 7 8 9 10 10
0 2 3 2 1 1 5 5 4 5 5 4 5 5 4 5 7 7 7 9 7 6 7 7 9 9 10 10
3 2 2 1 -0 -0 8 8 6 5 4 4 6 4 4 5 6 8 7 7 7 8 7 9 8 10 8 8
2 2 1 -0 -1 2 14 7 6 3 4 5 5 5 3 4 7 7 6 8 7 7 9 8 7 9 7 8
1 0 -0 -0 1 9 14 8 6 6 7 6 6 5 5 4 5 7 7 7 6 7 8 7 7 7 9 9
2 -1 -0 2 9 12 7 9 8 6 7 7 7 7 7 8 9 10 10 8 8 8 8 9 8 9 11 15
-0 -1 1 6 12 9 9 6 7 7 8 7 7 7 8 9 8 10 11 12 13 9 8 9 11 10 11 15
1 1 5 10 10 9 7 8 7 9 9 8 9 8 8 9 10 10 12 12 12 10 9 9 10 11 13 11
1 2 7 9 8 7 7 7 10 8 10 9 10 9 9 9 10 11 10 11 14 11 11 10 10 11 10 14
2 4 9 9 8 8 7 8 8 9 8 9 9 9 11 10 9 11 11 12 13 13 12 12 12 12 13 13
6 6 7 8 9 8 7 8 8 8 9 9 10 10 11 10 10 10 11 12 13 15 13 11 11 12 12 12
9 9 8 10 9 10 9 9 10 9 9 10 11 10 10 10 10 10 12 11 13 16 15 13 12 14 12 12

GFSFLT2_con_lsi_051.txt.gz
Lid_Strength_Index
-1 -1 -1 -1 -1 -1 -0 -0 1 4 6 7 7 8 7 8 6 6 6 7 8 10 9 11 9 10 12 10
-1 -1 -1 -1 -1 -1 0 -0 -0 5 8 6 8 7 7 8 7 6 5 6 7 8 10 10 11 12 12 13
-1 -1 -1 -1 -1 0 -0 0 4 6 11 5 8 7 7 7 7 7 6 6 6 8 10 13 14 12 15 14
-1 -1 -1 -1 1 1 0 3 4 8 8 9 7 7 7 6 7 7 7 8 10 12 12 14 16 14 14 13
-1 -0 1 4 6 6 4 7 8 9 8 7 7 7 6 7 7 9 12 9 13 14 13 10 10 11 13 13
-1 1 4 5 5 5 9 6 6 7 6 7 8 7 6 9 10 12 10 11 13 10 8 8 9 10 12 12
1 3 4 4 2 2 9 7 6 7 7 6 8 8 6 8 10 11 11 12 9 7 7 9 10 11 12 12
4 4 5 2 1 2 12 9 7 6 5 4 7 4 5 6 8 11 9 10 8 8 9 10 9 12 9 9
4 4 3 2 2 4 16 8 6 3 5 6 6 5 4 6 8 9 10 11 9 10 10 9 9 10 8 10
4 3 2 3 4 12 16 8 6 7 8 7 7 5 6 6 7 9 9 9 8 9 9 8 9 8 10 11
4 3 3 5 12 15 8 10 8 7 8 9 8 8 9 10 12 14 14 10 10 9 8 11 9 10 14 17
3 3 4 9 16 10 10 7 7 7 9 8 9 8 10 12 11 12 14 14 15 11 9 11 12 12 13 17
3 4 7 13 13 10 8 8 8 11 10 9 10 10 11 12 13 13 15 16 15 11 11 11 11 13 16 14
4 5 9 10 11 8 8 8 11 10 12 11 12 12 12 11 12 12 13 15 17 12 12 11 11 13 12 16
6 8 12 12 10 8 7 9 10 10 10 11 11 12 12 11 10 12 13 15 16 16 14 15 14 14 16 15
10 10 11 10 9 9 8 9 9 10 11 11 12 13 12 12 11 11 13 14 16 18 16 14 13 14 15 15
12 13 12 10 9 9 10 10 10 10 11 12 14 13 12 10 11 12 14 14 17 19 17 15 14 16 14 14

GFSFLT2_con_lsi_054.txt.gz
Lid_Strength_Index
-1 -1 -1 -1 -1 -1 -1 -0 -1 2 6 7 7 8 8 9 7 6 6 7 8 10 10 11 10 11 12 12
-1 -1 -1 -1 -1 -1 -0 -0 0 4 8 6 8 8 7 8 7 6 6 6 7 8 10 10 11 13 14 15
-1 -1 -1 -1 -1 -1 0 -1 3 6 9 5 9 8 8 8 8 7 7 7 7 10 11 14 15 15 17 15
-1 -1 -1 -1 -0 1 1 2 3 8 7 10 8 8 9 7 8 8 8 9 10 13 13 15 18 16 15 14
-1 -1 -0 4 7 6 4 7 7 9 9 8 7 9 8 7 8 10 12 10 13 16 14 13 12 13 14 14
-1 -0 4 6 6 6 9 5 7 8 8 8 9 9 7 11 11 13 12 13 15 12 10 10 10 11 13 13
-0 3 6 5 3 3 10 8 7 8 8 8 9 9 8 9 12 12 13 14 11 8 9 10 10 11 12 13
5 5 7 3 2 4 13 11 9 8 7 6 9 7 7 8 10 12 11 13 9 9 10 10 10 13 10 10
4 5 4 3 3 5 17 9 8 5 7 8 7 7 5 7 10 9 10 12 10 10 10 10 9 11 9 11
5 4 3 3 4 13 16 9 7 8 9 8 7 6 7 7 7 10 10 10 8 9 10 9 9 9 11 12
5 4 4 6 14 15 8 10 9 8 9 10 9 8 10 11 12 14 15 11 11 10 9 11 10 11 15 18
4 4 6 9 16 10 11 7 8 9 10 9 10 9 10 12 12 13 15 15 15 12 10 12 13 13 14 17
4 5 8 13 13 11 9 9 8 11 11 10 10 11 12 13 13 14 15 16 15 11 11 11 12 14 16 14
5 6 10 11 12 9 8 8 12 11 12 12 12 13 13 12 12 12 13 16 18 13 12 12 12 14 13 17
6 8 13 12 10 8 8 10 11 11 11 12 12 13 13 12 11 12 13 15 17 17 15 15 15 15 16 16
10 12 12 10 8 9 9 9 10 10 12 12 13 13 13 12 11 12 14 15 16 18 17 14 13 14 16 16
13 14 12 10 10 10 10 10 11 10 11 13 14 13 13 11 12 12 14 15 18 20 18 15 14 17 15 15

GFSFLT2_con_lsi_057.txt.gz
Lid_Strength_Index
-1 -1 -1 -1 -1 -1 -1 -1 -1 1 5 7 7 9 8 9 7 5 7 7 7 10 10 11 10 11 12 12
-1 -1 -1 -1 -1 -1 -1 -1 -0 2 7 3 7 8 8 9 7 6 5 5 7 8 9 11 12 14 14 16
-1 -1 -1 -1 -1 -1 -1 -0 2 6 9 5 9 8 8 8 8 8 7 5 6 9 10 14 16 15 18 16
-1 -1 -1 -1 -1 -1 2 1 3 8 7 10 8 8 9 8 9 9 9 9 11 13 14 16 18 17 17 16
-1 -1 -0 3 6 6 5 7 7 8 8 7 7 8 8 9 10 11 13 12 14 16 14 14 14 15 15 15
-1 -1 2 6 6 6 9 5 6 7 7 7 8 8 7 11 12 14 12 13 15 13 12 12 13 13 14 15
-1 2 6 5 3 4 11 8 6 7 8 8 9 10 7 11 12 13 13 15 13 11 11 12 12 13 14 13
4 5 6 5 3 5 14 11 9 8 8 7 10 8 8 10 12 14 13 14 11 11 11 12 11 14 11 11
5 5 3 3 4 7 18 11 8 6 8 9 9 9 8 9 12 12 12 14 12 12 12 11 10 12 10 11
5 4 3 4 7 14 17 11 9 10 10 10 9 8 10 9 9 11 11 11 9 10 10 9 10 9 12 13
5 4 4 7 15 15 10 11 11 10 11 11 10 9 11 12 13 15 15 12 11 11 9 11 10 12 15 18
4 4 6 10 16 11 11 8 9 10 11 10 10 10 11 13 13 13 15 15 15 12 11 12 13 13 15 18
4 5 9 14 14 12 10 9 9 11 12 10 10 11 13 13 14 14 15 16 16 12 12 12 12 14 16 14
5 7 10 12 12 10 9 9 12 11 12 12 12 13 13 12 13 13 14 16 18 14 13 12 12 14 13 17
6 9 13 13 11 9 9 10 11 11 12 12 13 14 13 12 12 13 14 16 16 17 15 16 16 15 16 17
11 13 12 11 9 10 9 10 10 11 12 12 13 14 13 13 12 12 15 15 17 18 17 15 14 15 16 16
13 14 13 11 10 10 11 11 11 11 12 13 15 13 13 11 11 12 15 15 18 20 18 16 15 17 16 15

GFSFLT2_con_lsi_063.txt.gz
Lid_Strength_Index
-1 -1 -1 -1 -1 -1 -1 -1 -1 0 4 6 1 5 6 6 6 6 6 6 6 7 7 9 9 10 11 11
-1 -1 -1 -1 -1 -1 -1 -1 -1 1 6 1 0 3 6 7 5 5 5 5 5 6 8 9 11 12 12 12
-2 -1 -1 -1 -1 -1 -1 -1 1 3 7 1 5 6 6 7 7 6 5 5 6 8 9 12 12 13 13 14
-1 -1 -2 -1 -1 -1 -0 -0 1 6 5 7 6 6 6 6 8 7 8 9 10 11 12 12 14 14 15 15
-1 -1 -0 2 5 5 3 6 5 6 6 6 5 7 6 7 8 9 11 10 12 13 11 11 13 13 14 14
-1 -1 1 5 5 4 7 5 5 5 4 5 8 7 6 9 10 12 11 12 14 11 11 11 12 13 14 14
-1 0 4 5 3 4 7 7 5 6 6 5 8 9 7 9 11 12 12 13 12 11 11 12 13 12 13 14
1 4 5 3 3 4 11 10 8 6 6 5 8 7 6 8 10 12 12 12 11 11 12 12 12 14 11 12
5 4 3 3 3 5 17 9 8 5 5 8 7 8 7 8 11 11 11 12 11 12 12 12 11 12 10 11
2 3 3 4 4 11 16 10 7 9 9 8 8 7 9 8 9 11 11 11 9 11 11 12 11 11 13 13
5 4 5 6 12 15 10 12 10 10 10 10 10 10 12 13 13 15 13 13 12 11 10 12 10 12 13 15
3 3 6 9 15 12 12 9 10 10 12 10 11 11 12 14 14 14 15 15 15 12 11 11 11 12 11 15
4 5 9 14 13 11 10 10 11 12 12 11 11 12 13 13 14 13 13 14 13 11 11 10 10 12 13 12
5 7 10 11 12 10 9 9 12 11 13 12 12 12 12 12 12 12 11 13 15 13 11 10 11 11 12 14
7 9 13 13 10 9 9 9 10 11 11 12 12 12 12 11 11 12 12 13 13 14 12 13 13 13 14 15
10 13 12 11 9 10 9 10 10 10 11 12 12 13 12 12 11 11 13 13 14 16 14 13 12 12 13 14
13 13 12 11 11 11 11 11 11 11 11 12 13 12 12 11 11 12 13 13 16 17 16 14 13 14 14 15

GFSFLT2_con_lsi_066.txt.gz
Lid_Strength_Index
-1 -1 -1 -1 -1 -1 -1 -1 -1 -0 3 4 1 -0 2 3 3 3 5 5 5 6 7 8 8 8 9 9
-1 -1 -1 -1 -2 -1 -1 -1 -1 0 5 1 -0 1 2 3 3 3 4 3 4 5 7 8 9 10 9 10
-1 -1 -1 -1 -2 -1 -1 -1 1 2 5 -1 2 1 3 5 4 4 4 4 4 6 8 9 10 11 12 10
-1 -1 -1 -2 -1 -1 -1 -1 1 5 3 4 3 3 4 3 5 5 7 7 6 7 8 9 13 12 12 10
-1 -1 -1 0 3 4 3 4 4 5 4 2 2 4 4 5 5 6 9 8 8 10 8 8 8 9 10 11
-2 -1 -1 3 4 3 6 3 4 5 3 3 6 5 4 7 8 9 8 9 10 7 7 10 10 11 12 12
-1 0 2 3 1 2 6 5 4 5 5 4 6 6 5 7 9 10 9 9 8 10 10 10 10 10 11 12
1 1 4 2 0 1 8 8 6 5 4 3 7 5 5 6 8 10 10 10 9 10 10 11 10 12 11 11
2 3 1 0 1 3 15 7 6 3 4 6 6 7 6 6 9 10 9 10 10 10 11 10 10 11 9 10
1 1 1 2 3 11 15 9 6 7 7 6 7 7 7 6 7 9 8 9 8 9 9 10 9 9 10 10
2 1 1 5 10 14 8 10 9 8 8 9 8 8 9 9 10 11 11 10 10 9 9 10 9 10 10 13
0 1 4 6 14 10 10 7 8 9 10 8 9 9 10 11 10 10 11 11 13 11 10 10 10 10 10 12
1 2 5 10 10 9 9 9 9 11 10 10 9 10 10 11 11 11 11 12 13 10 10 9 9 10 10 9
2 4 7 9 8 9 9 9 12 10 11 11 10 10 10 10 11 11 10 10 12 11 10 9 9 9 9 11
3 5 9 9 8 8 8 8 9 9 9 10 10 10 11 10 10 10 9 9 10 12 10 10 10 10 10 11
7 7 8 8 9 8 7 8 7 8 8 9 9 10 10 9 9 9 10 10 9 11 12 11 10 10 10 10
9 8 8 9 9 9 9 8 9 8 8 9 10 9 9 10 9 10 10 10 11 13 13 12 11 12 11 11